Time,TemperatureF,DewpointF,PressureIn,WindDirection,WindDirectionDegrees,WindSpeedMPH,WindSpeedGustMPH,Humidity,HourlyPrecipIn,Conditions,Clouds,dailyrainin,SoftwareType,DateUTC
2013-05-05 00:01:00,54.5,22.9,29.88,North,0,0.0,0.0,29,0.00,,OVC036,0.00,VWS V12.08,2013-05-05 07:01:00,
2013-05-05 00:06:00,54.1,23.4,29.88,North,0,0.0,0.0,30,0.00,,OVC036,0.00,VWS V12.08,2013-05-05 07:06:00,
2013-05-05 00:11:00,54.0,23.2,29.88,North,0,0.0,0.0,30,0.00,,OVC036,0.00,VWS V12.08,2013-05-05 07:11:00,
2013-05-05 00:16:00,53.8,23.9,29.88,North,0,0.0,0.0,31,0.00,,OVC036,0.00,VWS V12.08,2013-05-05 07:16:00,
2013-05-05 00:21:00,53.6,24.5,29.88,North,0,0.0,0.0,32,0.00,,OVC036,0.00,VWS V12.08,2013-05-05 07:21:00,
2013-05-05 00:26:00,53.1,25.5,29.88,North,0,0.0,0.0,34,0.00,,OVC036,0.00,VWS V12.08,2013-05-05 07:26:00,
2013-05-05 00:31:00,52.9,24.6,29.88,North,0,0.0,0.0,33,0.00,,OVC036,0.00,VWS V12.08,2013-05-05 07:31:00,
2013-05-05 00:36:00,52.7,25.8,29.88,North,0,0.0,0.0,35,0.00,,OVC036,0.00,VWS V12.08,2013-05-05 07:36:00,
2013-05-05 00:41:00,52.5,24.3,29.88,North,0,0.0,0.0,33,0.00,,OVC036,0.00,VWS V12.08,2013-05-05 07:41:00,
2013-05-05 00:46:00,52.9,24.6,29.88,North,0,0.0,0.0,33,0.00,,OVC036,0.00,VWS V12.08,2013-05-05 07:46:00,
2013-05-05 00:51:00,53.1,25.5,29.88,North,0,0.0,0.0,34,0.00,,OVC036,0.00,VWS V12.08,2013-05-05 07:51:00,
2013-05-05 00:56:00,53.1,25.5,29.88,North,0,0.0,0.0,34,0.00,,OVC036,0.00,VWS V12.08,2013-05-05 07:56:00,
2013-05-05 01:01:00,53.2,26.3,29.88,North,0,0.0,0.0,35,0.00,,OVC036,0.00,VWS V12.08,2013-05-05 08:01:00,
2013-05-05 01:06:00,53.4,25.8,29.88,North,0,0.0,0.0,34,0.00,,OVC036,0.00,VWS V12.08,2013-05-05 08:06:00,
2013-05-05 01:11:00,53.6,25.2,29.88,North,0,0.0,0.0,33,0.00,,OVC036,0.00,VWS V12.08,2013-05-05 08:11:00,
2013-05-05 01:16:00,54.0,24.8,29.88,North,0,0.0,0.0,32,0.00,,OVC036,0.00,VWS V12.08,2013-05-05 08:16:00,
2013-05-05 01:21:00,54.1,24.2,29.88,North,0,0.0,0.0,31,0.00,,OVC036,0.00,VWS V12.08,2013-05-05 08:21:00,
2013-05-05 01:26:00,54.5,23.7,29.85,North,0,0.0,0.0,30,0.00,,OVC036,0.00,VWS V12.08,2013-05-05 08:26:00,
2013-05-05 01:31:00,54.7,23.9,29.85,North,0,0.0,0.0,30,0.00,,OVC036,0.00,VWS V12.08,2013-05-05 08:31:00,
2013-05-05 01:36:00,54.9,24.0,29.85,North,0,0.0,0.0,30,0.00,,OVC036,0.00,VWS V12.08,2013-05-05 08:36:00,
2013-05-05 01:41:00,54.9,24.0,29.85,North,0,0.0,0.0,30,0.00,,OVC036,0.00,VWS V12.08,2013-05-05 08:41:00,
2013-05-05 01:46:00,54.9,24.0,29.85,North,0,0.0,0.0,30,0.00,,OVC036,0.00,VWS V12.08,2013-05-05 08:46:00,
2013-05-05 01:51:00,55.0,23.4,29.85,North,0,0.0,0.0,29,0.00,,OVC036,0.00,VWS V12.08,2013-05-05 08:51:00,
2013-05-05 01:56:00,55.0,23.4,29.85,North,0,0.0,0.0,29,0.00,,OVC036,0.00,VWS V12.08,2013-05-05 08:56:00,
2013-05-05 02:01:00,55.0,22.5,29.85,North,0,0.0,0.0,28,0.00,,OVC036,0.00,VWS V12.08,2013-05-05 09:01:00,
2013-05-05 02:06:00,55.4,22.9,29.85,North,0,0.0,0.0,28,0.00,,OVC036,0.00,VWS V12.08,2013-05-05 09:06:00,
2013-05-05 02:11:00,55.9,22.5,29.85,North,0,0.0,0.0,27,0.00,,OVC036,0.00,VWS V12.08,2013-05-05 09:11:00,
2013-05-05 02:16:00,56.8,22.3,29.85,North,0,0.0,0.0,26,0.00,,OVC036,0.00,VWS V12.08,2013-05-05 09:16:00,
2013-05-05 02:21:00,57.6,22.0,29.85,North,0,0.0,0.0,25,0.00,,OVC036,0.00,VWS V12.08,2013-05-05 09:21:00,
2013-05-05 02:26:00,57.9,23.3,29.85,North,0,0.0,0.0,26,0.00,,OVC036,0.00,VWS V12.08,2013-05-05 09:26:00,
2013-05-05 02:31:00,57.4,22.8,29.85,North,0,0.0,0.0,26,0.00,,OVC036,0.00,VWS V12.08,2013-05-05 09:31:00,
2013-05-05 02:36:00,57.0,24.3,29.85,North,0,0.0,0.0,28,0.00,,OVC036,0.00,VWS V12.08,2013-05-05 09:36:00,
2013-05-05 02:41:00,56.7,23.1,29.85,North,0,0.0,0.0,27,0.00,,OVC036,0.00,VWS V12.08,2013-05-05 09:41:00,
2013-05-05 02:46:00,56.1,23.5,29.85,North,0,0.0,0.0,28,0.00,,OVC036,0.00,VWS V12.08,2013-05-05 09:46:00,
2013-05-05 02:51:00,55.9,24.2,29.85,North,0,0.0,0.0,29,0.00,,OVC036,0.00,VWS V12.08,2013-05-05 09:51:00,
2013-05-05 02:56:00,55.8,24.0,29.85,North,0,0.0,0.0,29,0.00,,OVC036,0.00,VWS V12.08,2013-05-05 09:56:00,
2013-05-05 03:01:00,55.4,23.7,29.85,North,0,0.0,0.0,29,0.00,,OVC036,0.00,VWS V12.08,2013-05-05 10:01:00,
2013-05-05 03:06:00,55.0,24.2,29.85,North,0,0.0,0.0,30,0.00,,OVC036,0.00,VWS V12.08,2013-05-05 10:06:00,
2013-05-05 03:11:00,54.7,23.9,29.85,North,0,0.0,0.0,30,0.00,,OVC036,0.00,VWS V12.08,2013-05-05 10:11:00,
2013-05-05 03:16:00,54.3,24.4,29.85,North,0,0.0,0.0,31,0.00,,OVC036,0.00,VWS V12.08,2013-05-05 10:16:00,
2013-05-05 03:21:00,53.8,25.4,29.85,North,0,0.0,0.0,33,0.00,,OVC036,0.00,VWS V12.08,2013-05-05 10:21:00,
2013-05-05 03:26:00,53.6,25.2,29.88,North,0,0.0,0.0,33,0.00,,OVC036,0.00,VWS V12.08,2013-05-05 10:26:00,
2013-05-05 03:31:00,53.2,25.6,29.88,North,0,0.0,0.0,34,0.00,,OVC036,0.00,VWS V12.08,2013-05-05 10:31:00,
2013-05-05 03:36:00,53.1,26.8,29.88,North,0,0.0,0.0,36,0.00,,OVC036,0.00,VWS V12.08,2013-05-05 10:36:00,
2013-05-05 03:41:00,52.5,26.4,29.85,North,0,0.0,0.0,36,0.00,,OVC036,0.00,VWS V12.08,2013-05-05 10:41:00,
2013-05-05 03:46:00,52.2,26.0,29.85,North,0,0.0,0.0,36,0.00,,OVC036,0.00,VWS V12.08,2013-05-05 10:46:00,
2013-05-05 03:51:00,52.2,26.0,29.85,North,0,0.0,0.0,36,0.00,,OVC036,0.00,VWS V12.08,2013-05-05 10:51:00,
2013-05-05 03:56:00,52.2,26.0,29.85,North,0,0.0,0.0,36,0.00,,OVC036,0.00,VWS V12.08,2013-05-05 10:56:00,
2013-05-05 04:01:00,52.0,25.9,29.85,North,0,0.0,0.0,36,0.00,,OVC036,0.00,VWS V12.08,2013-05-05 11:01:00,
2013-05-05 04:06:00,51.8,25.7,29.85,North,0,0.0,0.0,36,0.00,,OVC036,0.00,VWS V12.08,2013-05-05 11:06:00,
2013-05-05 04:11:00,52.0,25.9,29.85,North,0,0.0,0.0,36,0.00,,OVC036,0.00,VWS V12.08,2013-05-05 11:11:00,
2013-05-05 04:16:00,51.8,25.7,29.85,North,0,0.0,0.0,36,0.00,,OVC036,0.00,VWS V12.08,2013-05-05 11:16:00,
2013-05-05 04:21:00,51.6,26.2,29.85,North,0,0.0,0.0,37,0.00,,OVC036,0.00,VWS V12.08,2013-05-05 11:21:00,
2013-05-05 04:26:00,51.3,25.9,29.85,North,0,0.0,0.0,37,0.00,,OVC036,0.00,VWS V12.08,2013-05-05 11:26:00,
2013-05-05 04:31:00,51.1,26.4,29.85,North,0,0.0,0.0,38,0.00,,OVC036,0.00,VWS V12.08,2013-05-05 11:31:00,
2013-05-05 04:36:00,50.9,26.2,29.85,North,0,0.0,0.0,38,0.00,,OVC036,0.00,VWS V12.08,2013-05-05 11:36:00,
2013-05-05 04:41:00,50.7,26.0,29.85,North,0,0.0,0.0,38,0.00,,OVC036,0.00,VWS V12.08,2013-05-05 11:41:00,
2013-05-05 04:46:00,50.5,25.9,29.85,North,0,0.0,0.0,38,0.00,,OVC036,0.00,VWS V12.08,2013-05-05 11:46:00,
2013-05-05 04:51:00,50.5,25.9,29.85,North,0,0.0,0.0,38,0.00,,OVC036,0.00,VWS V12.08,2013-05-05 11:51:00,
2013-05-05 04:56:00,50.7,25.4,29.85,North,0,0.0,0.0,37,0.00,,OVC036,0.00,VWS V12.08,2013-05-05 11:56:00,
2013-05-05 05:01:00,50.7,25.4,29.85,North,0,0.0,0.0,37,0.00,,OVC036,0.00,VWS V12.08,2013-05-05 12:01:00,
2013-05-05 05:06:00,50.9,25.6,29.85,North,0,0.0,0.0,37,0.00,,OVC036,0.00,VWS V12.08,2013-05-05 12:06:00,
2013-05-05 05:11:00,51.1,26.4,29.85,North,0,0.0,0.0,38,0.00,,OVC036,0.00,VWS V12.08,2013-05-05 12:11:00,
2013-05-05 05:16:00,50.9,25.6,29.85,North,0,0.0,0.0,37,0.00,,OVC036,0.00,VWS V12.08,2013-05-05 12:16:00,
2013-05-05 05:21:00,50.9,25.6,29.85,North,0,0.0,0.0,37,0.00,,OVC036,0.00,VWS V12.08,2013-05-05 12:21:00,
2013-05-05 05:26:00,51.1,25.7,29.85,North,0,0.0,0.0,37,0.00,,OVC036,0.00,VWS V12.08,2013-05-05 12:26:00,
2013-05-05 05:31:00,51.8,25.7,29.85,North,0,0.0,0.0,36,0.00,,OVC036,0.00,VWS V12.08,2013-05-05 12:31:00,
2013-05-05 05:36:00,52.2,26.0,29.85,North,0,0.0,0.0,36,0.00,,OVC036,0.00,VWS V12.08,2013-05-05 12:36:00,
2013-05-05 05:41:00,52.5,26.4,29.85,North,0,0.0,0.0,36,0.00,,OVC036,0.00,VWS V12.08,2013-05-05 12:41:00,
2013-05-05 05:46:00,53.2,25.6,29.85,North,0,0.0,0.0,34,0.00,,OVC036,0.00,VWS V12.08,2013-05-05 12:46:00,
2013-05-05 05:51:00,53.4,25.1,29.85,North,0,0.0,0.0,33,0.00,,OVC036,0.00,VWS V12.08,2013-05-05 12:51:00,
2013-05-05 05:56:00,53.6,25.2,29.85,North,0,0.0,0.0,33,0.00,,OVC036,0.00,VWS V12.08,2013-05-05 12:56:00,
2013-05-05 06:01:00,53.6,25.2,29.85,North,0,0.0,0.0,33,0.00,,OVC036,0.00,VWS V12.08,2013-05-05 13:01:00,
2013-05-05 06:06:00,53.6,25.9,29.85,North,0,0.0,0.0,34,0.00,,OVC036,0.00,VWS V12.08,2013-05-05 13:06:00,
2013-05-05 06:11:00,54.0,25.5,29.85,North,0,0.0,0.0,33,0.00,,OVC036,0.00,VWS V12.08,2013-05-05 13:11:00,
2013-05-05 06:16:00,54.5,26.0,29.85,North,0,0.0,0.0,33,0.00,,OVC036,0.00,VWS V12.08,2013-05-05 13:16:00,
2013-05-05 06:21:00,55.0,26.5,29.85,North,0,0.0,0.0,33,0.00,,OVC036,0.00,VWS V12.08,2013-05-05 13:21:00,
2013-05-05 06:26:00,55.6,25.5,29.85,North,0,0.0,0.0,31,0.00,,OVC036,0.00,VWS V12.08,2013-05-05 13:26:00,
2013-05-05 06:31:00,56.3,26.1,29.85,North,0,0.0,0.0,31,0.00,,OVC036,0.00,VWS V12.08,2013-05-05 13:31:00,
2013-05-05 06:36:00,56.8,26.5,29.85,North,0,0.0,0.0,31,0.00,,OVC036,0.00,VWS V12.08,2013-05-05 13:36:00,
2013-05-05 06:41:00,57.4,26.2,29.85,North,0,0.0,0.0,30,0.00,,OVC036,0.00,VWS V12.08,2013-05-05 13:41:00,
2013-05-05 06:46:00,58.1,26.0,29.85,North,0,0.0,0.0,29,0.00,,OVC036,0.00,VWS V12.08,2013-05-05 13:46:00,
2013-05-05 06:51:00,58.8,26.6,29.85,North,0,0.0,0.0,29,0.00,,OVC036,0.00,VWS V12.08,2013-05-05 13:51:00,
2013-05-05 06:56:00,59.9,26.7,29.85,North,0,0.0,0.0,28,0.00,,OVC036,0.00,VWS V12.08,2013-05-05 13:56:00,
2013-05-05 07:01:00,60.8,24.8,29.85,North,0,0.0,0.0,25,0.00,,OVC036,0.00,VWS V12.08,2013-05-05 14:01:00,
2013-05-05 07:06:00,60.6,24.6,29.85,North,0,0.0,0.0,25,0.00,,OVC036,0.00,VWS V12.08,2013-05-05 14:06:00,
2013-05-05 07:11:00,60.1,25.1,29.85,North,0,0.0,0.0,26,0.00,,OVC036,0.00,VWS V12.08,2013-05-05 14:11:00,
2013-05-05 07:16:00,59.9,25.0,29.85,North,0,0.0,0.0,26,0.00,,OVC036,0.00,VWS V12.08,2013-05-05 14:16:00,
2013-05-05 07:21:00,60.1,25.1,29.85,North,0,0.0,0.0,26,0.00,,OVC036,0.00,VWS V12.08,2013-05-05 14:21:00,
2013-05-05 07:26:00,60.4,25.4,29.85,North,0,0.0,0.0,26,0.00,,OVC036,0.00,VWS V12.08,2013-05-05 14:26:00,
2013-05-05 07:31:00,61.0,24.9,29.85,North,0,0.0,0.0,25,0.00,,OVC036,0.00,VWS V12.08,2013-05-05 14:31:00,
2013-05-05 07:36:00,61.7,25.5,29.85,North,0,0.0,0.0,25,0.00,,OVC036,0.00,VWS V12.08,2013-05-05 14:36:00,
2013-05-05 07:41:00,62.4,26.2,29.85,North,0,0.0,0.0,25,0.00,,OVC036,0.00,VWS V12.08,2013-05-05 14:41:00,
2013-05-05 07:46:00,63.1,25.8,29.85,North,0,0.0,0.0,24,0.00,,OVC036,0.00,VWS V12.08,2013-05-05 14:46:00,
2013-05-05 07:51:00,63.9,26.4,29.85,North,0,0.0,0.0,24,0.00,,OVC036,0.00,VWS V12.08,2013-05-05 14:51:00,
2013-05-05 07:56:00,64.4,25.8,29.85,North,0,0.0,0.0,23,0.00,,OVC036,0.00,VWS V12.08,2013-05-05 14:56:00,
2013-05-05 08:01:00,64.9,26.3,29.85,North,0,0.0,0.0,23,0.00,,OVC036,0.00,VWS V12.08,2013-05-05 15:01:00,
2013-05-05 08:06:00,64.8,26.1,29.85,North,0,0.0,0.0,23,0.00,,OVC036,0.00,VWS V12.08,2013-05-05 15:06:00,
2013-05-05 08:11:00,64.4,25.8,29.85,North,0,0.0,0.0,23,0.00,,OVC036,0.00,VWS V12.08,2013-05-05 15:11:00,
2013-05-05 08:16:00,64.6,22.6,29.85,North,0,0.0,0.0,20,0.00,,OVC036,0.00,VWS V12.08,2013-05-05 15:16:00,
2013-05-05 08:21:00,65.1,23.1,29.85,North,0,0.0,0.0,20,0.00,,OVC036,0.00,VWS V12.08,2013-05-05 15:21:00,
2013-05-05 08:26:00,65.3,23.2,29.83,North,0,0.0,0.0,20,0.00,,OVC036,0.00,VWS V12.08,2013-05-05 15:26:00,
2013-05-05 08:31:00,66.0,23.8,29.83,North,0,0.0,0.0,20,0.00,,OVC036,0.00,VWS V12.08,2013-05-05 15:31:00,
2013-05-05 08:36:00,66.4,20.3,29.83,North,0,0.0,0.0,17,0.00,,OVC036,0.00,VWS V12.08,2013-05-05 15:36:00,
2013-05-05 08:41:00,66.4,20.3,29.85,North,0,0.0,0.0,17,0.00,,OVC036,0.00,VWS V12.08,2013-05-05 15:41:00,
2013-05-05 08:46:00,66.9,20.7,29.85,North,0,0.0,0.0,17,0.00,,OVC036,0.00,VWS V12.08,2013-05-05 15:46:00,
2013-05-05 08:51:00,67.3,21.0,29.85,North,0,0.0,0.0,17,0.00,,OVC036,0.00,VWS V12.08,2013-05-05 15:51:00,
2013-05-05 08:56:00,67.8,18.5,29.83,North,0,0.0,0.0,15,0.00,,OVC036,0.00,VWS V12.08,2013-05-05 15:56:00,
2013-05-05 09:01:00,68.2,18.8,29.83,North,0,0.0,0.0,15,0.00,,OVC036,0.00,VWS V12.08,2013-05-05 16:01:00,
2013-05-05 09:06:00,68.4,19.0,29.83,North,0,0.0,0.0,15,0.00,,OVC036,0.00,VWS V12.08,2013-05-05 16:06:00,
2013-05-05 09:11:00,68.9,19.4,29.83,North,0,0.0,0.0,15,0.00,,OVC036,0.00,VWS V12.08,2013-05-05 16:11:00,
2013-05-05 09:16:00,69.4,19.8,29.83,North,0,0.0,0.0,15,0.00,,OVC036,0.00,VWS V12.08,2013-05-05 16:16:00,
2013-05-05 09:21:00,69.3,19.7,29.83,North,0,0.0,0.0,15,0.00,,OVC036,0.00,VWS V12.08,2013-05-05 16:21:00,
2013-05-05 09:26:00,69.3,19.7,29.83,North,0,0.0,0.0,15,0.00,,OVC036,0.00,VWS V12.08,2013-05-05 16:26:00,
2013-05-05 09:31:00,70.0,18.6,29.83,North,0,0.0,0.0,14,0.00,,OVC036,0.00,VWS V12.08,2013-05-05 16:31:00,
2013-05-05 09:36:00,70.2,18.8,29.83,North,0,0.0,0.0,14,0.00,,OVC036,0.00,VWS V12.08,2013-05-05 16:36:00,
2013-05-05 09:41:00,70.9,19.4,29.83,North,0,0.0,0.0,14,0.00,,OVC036,0.00,VWS V12.08,2013-05-05 16:41:00,
2013-05-05 09:46:00,71.2,19.6,29.83,North,0,0.0,0.0,14,0.00,,OVC036,0.00,VWS V12.08,2013-05-05 16:46:00,
2013-05-05 09:51:00,70.9,19.4,29.83,North,0,0.0,0.0,14,0.00,,OVC036,0.00,VWS V12.08,2013-05-05 16:51:00,
2013-05-05 09:56:00,70.9,19.4,29.83,North,0,0.0,0.0,14,0.00,,OVC036,0.00,VWS V12.08,2013-05-05 16:56:00,
2013-05-05 10:01:00,71.8,20.1,29.83,North,0,0.0,0.0,14,0.00,,OVC036,0.00,VWS V12.08,2013-05-05 17:01:00,
2013-05-05 10:06:00,72.0,20.2,29.83,North,0,0.0,0.0,14,0.00,,OVC036,0.00,VWS V12.08,2013-05-05 17:06:00,
2013-05-05 10:11:00,71.8,20.1,29.83,North,0,0.0,0.0,14,0.00,,OVC036,0.00,VWS V12.08,2013-05-05 17:11:00,
2013-05-05 10:16:00,72.3,20.5,29.83,North,0,0.0,0.0,14,0.00,,OVC036,0.00,VWS V12.08,2013-05-05 17:16:00,
2013-05-05 10:21:00,72.1,14.8,29.83,North,0,0.0,0.0,11,0.00,,OVC036,0.00,VWS V12.08,2013-05-05 17:21:00,
2013-05-05 10:26:00,72.1,14.8,29.83,North,0,0.0,0.0,11,0.00,,OVC036,0.00,VWS V12.08,2013-05-05 17:26:00,
2013-05-05 10:31:00,72.3,14.9,29.83,North,0,0.0,0.0,11,0.00,,OVC036,0.00,VWS V12.08,2013-05-05 17:31:00,
2013-05-05 10:36:00,72.7,15.2,29.83,North,0,0.0,0.0,11,0.00,,OVC036,0.00,VWS V12.08,2013-05-05 17:36:00,
2013-05-05 10:41:00,72.9,15.3,29.80,North,0,0.0,0.0,11,0.00,,OVC036,0.00,VWS V12.08,2013-05-05 17:41:00,
2013-05-05 10:46:00,73.0,15.5,29.80,North,0,0.0,0.0,11,0.00,,OVC036,0.00,VWS V12.08,2013-05-05 17:46:00,
2013-05-05 10:51:00,72.9,15.3,29.80,North,0,0.0,0.0,11,0.00,,OVC036,0.00,VWS V12.08,2013-05-05 17:51:00,
2013-05-05 10:56:00,73.4,15.7,29.80,North,0,0.0,0.0,11,0.00,,OVC036,0.00,VWS V12.08,2013-05-05 17:56:00,
2013-05-05 11:01:00,73.8,16.0,29.80,North,0,0.0,0.0,11,0.00,,OVC036,0.00,VWS V12.08,2013-05-05 18:01:00,
2013-05-05 11:06:00,74.5,16.6,29.80,North,0,0.0,0.0,11,0.00,,OVC036,0.00,VWS V12.08,2013-05-05 18:06:00,
2013-05-05 11:11:00,75.6,15.2,29.80,North,0,0.0,0.0,10,0.00,,OVC036,0.00,VWS V12.08,2013-05-05 18:11:00,
2013-05-05 11:16:00,75.0,17.0,29.80,North,0,0.0,0.0,11,0.00,,OVC036,0.00,VWS V12.08,2013-05-05 18:16:00,
2013-05-05 11:21:00,75.4,15.1,29.80,North,0,0.0,0.0,10,0.00,,OVC036,0.00,VWS V12.08,2013-05-05 18:21:00,
2013-05-05 11:26:00,76.5,15.9,29.80,North,0,0.0,0.0,10,0.00,,OVC036,0.00,VWS V12.08,2013-05-05 18:26:00,
2013-05-05 11:31:00,75.6,15.2,29.80,North,0,0.0,0.0,10,0.00,,OVC036,0.00,VWS V12.08,2013-05-05 18:31:00,
2013-05-05 11:36:00,76.3,15.8,29.80,North,0,0.0,0.0,10,0.00,,OVC036,0.00,VWS V12.08,2013-05-05 18:36:00,
2013-05-05 11:41:00,76.6,16.0,29.80,North,0,0.0,0.0,10,0.00,,OVC036,0.00,VWS V12.08,2013-05-05 18:41:00,
2013-05-05 11:46:00,76.3,15.8,29.80,North,0,0.0,0.0,10,0.00,,OVC036,0.00,VWS V12.08,2013-05-05 18:46:00,
2013-05-05 11:51:00,76.3,15.8,29.80,North,0,0.0,0.0,10,0.00,,OVC036,0.00,VWS V12.08,2013-05-05 18:51:00,
2013-05-05 11:56:00,77.2,16.5,29.80,North,0,0.0,0.0,10,0.00,,OVC036,0.00,VWS V12.08,2013-05-05 18:56:00,
2013-05-05 12:01:00,77.4,16.6,29.80,North,0,0.0,0.0,10,0.00,,OVC036,0.00,VWS V12.08,2013-05-05 19:01:00,
2013-05-05 12:06:00,75.4,15.1,29.80,North,0,0.0,0.0,10,0.00,,OVC036,0.00,VWS V12.08,2013-05-05 19:06:00,
2013-05-05 12:11:00,75.6,15.2,29.80,North,0,0.0,0.0,10,0.00,,OVC036,0.00,VWS V12.08,2013-05-05 19:11:00,
2013-05-05 12:16:00,76.1,15.6,29.80,North,0,0.0,0.0,10,0.00,,OVC036,0.00,VWS V12.08,2013-05-05 19:16:00,
2013-05-05 12:21:00,77.4,16.6,29.80,North,0,0.0,0.0,10,0.00,,OVC036,0.00,VWS V12.08,2013-05-05 19:21:00,
2013-05-05 12:26:00,79.0,17.8,29.80,North,0,0.0,0.0,10,0.00,,OVC036,0.00,VWS V12.08,2013-05-05 19:26:00,
2013-05-05 12:31:00,78.3,17.3,29.80,North,0,0.0,0.0,10,0.00,,OVC036,0.00,VWS V12.08,2013-05-05 19:31:00,
2013-05-05 12:36:00,77.0,16.3,29.80,North,0,0.0,0.0,10,0.00,,OVC036,0.00,VWS V12.08,2013-05-05 19:36:00,
2013-05-05 12:41:00,76.1,15.6,29.77,North,0,0.0,0.0,10,0.00,,OVC036,0.00,VWS V12.08,2013-05-05 19:41:00,
2013-05-05 12:46:00,76.6,16.0,29.77,North,0,0.0,0.0,10,0.00,,OVC036,0.00,VWS V12.08,2013-05-05 19:46:00,
2013-05-05 12:51:00,77.4,16.6,29.77,North,0,0.0,0.0,10,0.00,,OVC036,0.00,VWS V12.08,2013-05-05 19:51:00,
2013-05-05 12:56:00,77.4,16.6,29.77,North,0,0.0,0.0,10,0.00,,OVC036,0.00,VWS V12.08,2013-05-05 19:56:00,
2013-05-05 13:01:00,78.4,17.4,29.77,North,0,0.0,0.0,10,0.00,,OVC036,0.00,VWS V12.08,2013-05-05 20:01:00,
2013-05-05 13:06:00,78.8,17.7,29.77,North,0,0.0,0.0,10,0.00,,OVC036,0.00,VWS V12.08,2013-05-05 20:06:00,
2013-05-05 13:11:00,78.6,17.5,29.77,North,0,0.0,0.0,10,0.00,,OVC036,0.00,VWS V12.08,2013-05-05 20:11:00,
2013-05-05 13:16:00,78.6,17.5,29.77,North,0,0.0,0.0,10,0.00,,OVC036,0.00,VWS V12.08,2013-05-05 20:16:00,
2013-05-05 13:21:00,79.0,17.8,29.77,North,0,0.0,0.0,10,0.00,,OVC036,0.00,VWS V12.08,2013-05-05 20:21:00,
2013-05-05 13:26:00,80.2,18.8,29.77,North,0,0.0,0.0,10,0.00,,OVC036,0.00,VWS V12.08,2013-05-05 20:26:00,
2013-05-05 13:31:00,79.5,18.2,29.77,North,0,0.0,0.0,10,0.00,,OVC036,0.00,VWS V12.08,2013-05-05 20:31:00,
2013-05-05 13:36:00,78.8,17.7,29.77,North,0,0.0,0.0,10,0.00,,OVC036,0.00,VWS V12.08,2013-05-05 20:36:00,
2013-05-05 13:41:00,78.4,17.4,29.77,North,0,0.0,0.0,10,0.00,,OVC036,0.00,VWS V12.08,2013-05-05 20:41:00,
2013-05-05 13:46:00,78.3,17.3,29.77,North,0,0.0,0.0,10,0.00,,OVC036,0.00,VWS V12.08,2013-05-05 20:46:00,
2013-05-05 13:51:00,79.2,18.0,29.77,North,0,0.0,0.0,10,0.00,,OVC036,0.00,VWS V12.08,2013-05-05 20:51:00,
2013-05-05 13:56:00,80.2,18.8,29.77,North,0,0.0,0.0,10,0.00,,OVC036,0.00,VWS V12.08,2013-05-05 20:56:00,
2013-05-05 14:01:00,80.6,16.6,29.77,North,0,0.0,0.0,9,0.00,,OVC036,0.00,VWS V12.08,2013-05-05 21:01:00,
2013-05-05 14:06:00,81.1,17.0,29.77,North,0,0.0,0.0,9,0.00,,OVC036,0.00,VWS V12.08,2013-05-05 21:06:00,
2013-05-05 14:11:00,79.7,10.2,29.77,North,0,0.0,0.0,7,0.00,,OVC036,0.00,VWS V12.08,2013-05-05 21:11:00,
2013-05-05 14:16:00,79.9,10.4,29.77,North,0,0.0,0.0,7,0.00,,OVC036,0.00,VWS V12.08,2013-05-05 21:16:00,
2013-05-05 14:21:00,80.2,10.6,29.77,North,0,0.0,0.0,7,0.00,,OVC036,0.00,VWS V12.08,2013-05-05 21:21:00,
2013-05-05 14:26:00,80.8,16.7,29.74,North,0,0.0,0.0,9,0.00,,OVC036,0.00,VWS V12.08,2013-05-05 21:26:00,
2013-05-05 14:31:00,81.5,11.6,29.74,North,0,0.0,0.0,7,0.00,,OVC036,0.00,VWS V12.08,2013-05-05 21:31:00,
2013-05-05 14:36:00,81.9,11.8,29.74,North,0,0.0,0.0,7,0.00,,OVC036,0.00,VWS V12.08,2013-05-05 21:36:00,
2013-05-05 14:41:00,81.5,17.3,29.74,North,0,0.0,0.0,9,0.00,,OVC036,0.00,VWS V12.08,2013-05-05 21:41:00,
2013-05-05 14:46:00,81.9,11.8,29.74,North,0,0.0,0.0,7,0.00,,OVC036,0.00,VWS V12.08,2013-05-05 21:46:00,
2013-05-05 14:51:00,82.0,11.9,29.74,North,0,0.0,0.0,7,0.00,,OVC036,0.00,VWS V12.08,2013-05-05 21:51:00,
2013-05-05 14:56:00,81.9,11.8,29.74,North,0,0.0,0.0,7,0.00,,OVC036,0.00,VWS V12.08,2013-05-05 21:56:00,
2013-05-05 15:01:00,82.4,8.8,29.74,North,0,0.0,0.0,6,0.00,,OVC036,0.00,VWS V12.08,2013-05-05 22:01:00,
2013-05-05 15:06:00,82.4,8.8,29.74,North,0,0.0,0.0,6,0.00,,OVC036,0.00,VWS V12.08,2013-05-05 22:06:00,
2013-05-05 15:11:00,82.2,12.1,29.74,North,0,0.0,0.0,7,0.00,,OVC036,0.00,VWS V12.08,2013-05-05 22:11:00,
2013-05-05 15:16:00,83.1,9.3,29.74,North,0,0.0,0.0,6,0.00,,OVC036,0.00,VWS V12.08,2013-05-05 22:16:00,
2013-05-05 15:21:00,83.5,9.5,29.74,North,0,0.0,0.0,6,0.00,,OVC036,0.00,VWS V12.08,2013-05-05 22:21:00,
2013-05-05 15:26:00,83.7,9.7,29.71,North,0,0.0,0.0,6,0.00,,OVC036,0.00,VWS V12.08,2013-05-05 22:26:00,
2013-05-05 15:31:00,83.5,9.5,29.71,North,0,0.0,0.0,6,0.00,,OVC036,0.00,VWS V12.08,2013-05-05 22:31:00,
2013-05-05 16:17:00,83.3,9.4,29.71,North,0,0.0,0.0,6,0.00,,OVC036,0.00,VWS V12.08,2013-05-05 23:17:00,
2013-05-05 16:22:00,83.5,9.5,29.71,North,0,0.0,0.0,6,0.00,,OVC036,0.00,VWS V12.08,2013-05-05 23:22:00,
2013-05-05 16:27:00,83.7,9.7,29.71,North,0,0.0,0.0,6,0.00,,OVC036,0.00,VWS V12.08,2013-05-05 23:27:00,
2013-05-05 16:32:00,84.0,9.9,29.71,North,0,0.0,0.0,6,0.00,,OVC036,0.00,VWS V12.08,2013-05-05 23:32:00,
2013-05-05 16:37:00,83.7,9.7,29.71,North,0,0.0,0.0,6,0.00,,OVC036,0.00,VWS V12.08,2013-05-05 23:37:00,
2013-05-05 16:42:00,83.5,9.5,29.68,North,0,0.0,0.0,6,0.00,,OVC036,0.00,VWS V12.08,2013-05-05 23:42:00,
2013-05-05 16:47:00,83.5,9.5,29.68,North,0,0.0,0.0,6,0.00,,OVC036,0.00,VWS V12.08,2013-05-05 23:47:00,
2013-05-05 16:52:00,83.5,9.5,29.68,North,0,0.0,0.0,6,0.00,,OVC036,0.00,VWS V12.08,2013-05-05 23:52:00,
2013-05-05 16:57:00,83.3,9.4,29.68,North,0,0.0,0.0,6,0.00,,OVC036,0.00,VWS V12.08,2013-05-05 23:57:00,
2013-05-05 17:02:00,83.5,9.5,29.68,North,0,0.0,0.0,6,0.00,,OVC036,0.00,VWS V12.08,2013-05-06 00:02:00,
2013-05-05 17:07:00,83.5,9.5,29.68,North,0,0.0,0.0,6,0.00,,OVC036,0.00,VWS V12.08,2013-05-06 00:07:00,
2013-05-05 17:12:00,83.7,9.7,29.68,North,0,0.0,0.0,6,0.00,,OVC036,0.00,VWS V12.08,2013-05-06 00:12:00,
2013-05-05 17:17:00,83.1,9.3,29.68,North,0,0.0,0.0,6,0.00,,OVC036,0.00,VWS V12.08,2013-05-06 00:17:00,
2013-05-05 17:22:00,82.8,9.0,29.68,North,0,0.0,0.0,6,0.00,,OVC036,0.00,VWS V12.08,2013-05-06 00:22:00,
2013-05-05 17:27:00,82.4,8.8,29.68,North,0,0.0,0.0,6,0.00,,OVC036,0.00,VWS V12.08,2013-05-06 00:27:00,
2013-05-05 17:32:00,82.4,8.8,29.68,North,0,0.0,0.0,6,0.00,,OVC036,0.00,VWS V12.08,2013-05-06 00:32:00,
2013-05-05 17:37:00,82.2,12.1,29.68,North,0,0.0,0.0,7,0.00,,OVC036,0.00,VWS V12.08,2013-05-06 00:37:00,
2013-05-05 17:42:00,82.0,11.9,29.68,North,0,0.0,0.0,7,0.00,,OVC036,0.00,VWS V12.08,2013-05-06 00:42:00,
2013-05-05 17:47:00,81.7,11.7,29.68,North,0,0.0,0.0,7,0.00,,OVC036,0.00,VWS V12.08,2013-05-06 00:47:00,
2013-05-05 17:52:00,81.7,11.7,29.68,North,0,0.0,0.0,7,0.00,,OVC036,0.00,VWS V12.08,2013-05-06 00:52:00,
2013-05-05 17:57:00,81.5,11.6,29.65,North,0,0.0,0.0,7,0.00,,OVC036,0.00,VWS V12.08,2013-05-06 00:57:00,
2013-05-05 18:02:00,81.3,11.4,29.65,North,0,0.0,0.0,7,0.00,,OVC036,0.00,VWS V12.08,2013-05-06 01:02:00,
2013-05-05 18:07:00,81.1,11.3,29.65,North,0,0.0,0.0,7,0.00,,OVC036,0.00,VWS V12.08,2013-05-06 01:07:00,
2013-05-05 18:12:00,80.8,11.0,29.65,North,0,0.0,0.0,7,0.00,,OVC036,0.00,VWS V12.08,2013-05-06 01:12:00,
2013-05-05 18:17:00,80.4,10.8,29.65,North,0,0.0,0.0,7,0.00,,OVC036,0.00,VWS V12.08,2013-05-06 01:17:00,
2013-05-05 18:22:00,80.1,10.5,29.65,North,0,0.0,0.0,7,0.00,,OVC036,0.00,VWS V12.08,2013-05-06 01:22:00,
2013-05-05 18:27:00,79.9,10.4,29.65,North,0,0.0,0.0,7,0.00,,OVC036,0.00,VWS V12.08,2013-05-06 01:27:00,
2013-05-05 18:32:00,79.9,10.4,29.65,North,0,0.0,0.0,7,0.00,,OVC036,0.00,VWS V12.08,2013-05-06 01:32:00,
2013-05-05 18:37:00,79.7,10.2,29.65,North,0,0.0,0.0,7,0.00,,OVC036,0.00,VWS V12.08,2013-05-06 01:37:00,
2013-05-05 18:42:00,78.8,9.6,29.65,North,0,0.0,0.0,7,0.00,,OVC036,0.00,VWS V12.08,2013-05-06 01:42:00,
2013-05-05 18:47:00,78.1,12.0,29.65,North,0,0.0,0.0,8,0.00,,OVC036,0.00,VWS V12.08,2013-05-06 01:47:00,
2013-05-05 18:52:00,77.7,11.8,29.65,North,0,0.0,0.0,8,0.00,,OVC036,0.00,VWS V12.08,2013-05-06 01:52:00,
2013-05-05 18:57:00,77.4,11.5,29.65,North,0,0.0,0.0,8,0.00,,OVC036,0.00,VWS V12.08,2013-05-06 01:57:00,
2013-05-05 19:02:00,77.4,11.5,29.65,North,0,0.0,0.0,8,0.00,,OVC036,0.00,VWS V12.08,2013-05-06 02:02:00,
2013-05-05 19:07:00,77.2,11.4,29.65,North,0,0.0,0.0,8,0.00,,OVC036,0.00,VWS V12.08,2013-05-06 02:07:00,
2013-05-05 19:12:00,76.8,11.1,29.65,North,0,0.0,0.0,8,0.00,,OVC036,0.00,VWS V12.08,2013-05-06 02:12:00,
2013-05-05 19:17:00,76.6,11.0,29.65,North,0,0.0,0.0,8,0.00,,OVC036,0.00,VWS V12.08,2013-05-06 02:17:00,
2013-05-05 19:22:00,76.3,10.7,29.65,North,0,0.0,0.0,8,0.00,,OVC036,0.00,VWS V12.08,2013-05-06 02:22:00,
2013-05-05 19:27:00,76.1,10.6,29.65,North,0,0.0,0.0,8,0.00,,OVC036,0.00,VWS V12.08,2013-05-06 02:27:00,
2013-05-05 19:32:00,75.9,10.4,29.65,North,0,0.0,0.0,8,0.00,,OVC036,0.00,VWS V12.08,2013-05-06 02:32:00,
2013-05-05 19:37:00,75.6,10.2,29.65,North,0,0.0,0.0,8,0.00,,OVC036,0.00,VWS V12.08,2013-05-06 02:37:00,
2013-05-05 19:42:00,75.2,9.9,29.65,North,0,0.0,0.0,8,0.00,,OVC036,0.00,VWS V12.08,2013-05-06 02:42:00,
2013-05-05 19:47:00,74.7,9.5,29.65,North,0,0.0,0.0,8,0.00,,OVC036,0.00,VWS V12.08,2013-05-06 02:47:00,
2013-05-05 19:52:00,74.3,9.2,29.65,North,0,0.0,0.0,8,0.00,,OVC036,0.00,VWS V12.08,2013-05-06 02:52:00,
2013-05-05 19:57:00,73.8,8.8,29.65,North,0,0.0,0.0,8,0.00,,OVC036,0.00,VWS V12.08,2013-05-06 02:57:00,
2013-05-05 20:02:00,73.2,11.1,29.65,North,0,0.0,0.0,9,0.00,,OVC036,0.00,VWS V12.08,2013-05-06 03:02:00,
2013-05-05 20:07:00,72.7,10.6,29.65,North,0,0.0,0.0,9,0.00,,OVC036,0.00,VWS V12.08,2013-05-06 03:07:00,
2013-05-05 20:12:00,72.0,14.6,29.65,North,0,0.0,0.0,11,0.00,,OVC036,0.00,VWS V12.08,2013-05-06 03:12:00,
2013-05-05 20:17:00,71.1,15.9,29.65,North,0,0.0,0.0,12,0.00,,OVC036,0.00,VWS V12.08,2013-05-06 03:17:00,
2013-05-05 20:22:00,70.3,15.4,29.65,North,0,0.0,0.0,12,0.00,,OVC036,0.00,VWS V12.08,2013-05-06 03:22:00,
2013-05-05 20:27:00,69.8,14.9,29.65,North,0,0.0,0.0,12,0.00,,OVC036,0.00,VWS V12.08,2013-05-06 03:27:00,
2013-05-05 20:32:00,69.3,14.5,29.65,North,0,0.0,0.0,12,0.00,,OVC036,0.00,VWS V12.08,2013-05-06 03:32:00,
2013-05-05 20:37:00,68.7,14.1,29.65,North,0,0.0,0.0,12,0.00,,OVC036,0.00,VWS V12.08,2013-05-06 03:37:00,
2013-05-05 20:42:00,68.2,13.7,29.68,North,0,0.0,0.0,12,0.00,,OVC036,0.00,VWS V12.08,2013-05-06 03:42:00,
2013-05-05 20:47:00,67.5,18.2,29.68,North,0,0.0,0.0,15,0.00,,OVC036,0.00,VWS V12.08,2013-05-06 03:47:00,
2013-05-05 20:52:00,66.7,17.6,29.68,North,0,0.0,0.0,15,0.00,,OVC036,0.00,VWS V12.08,2013-05-06 03:52:00,
2013-05-05 20:57:00,66.2,20.1,29.68,North,0,0.0,0.0,17,0.00,,OVC036,0.00,VWS V12.08,2013-05-06 03:57:00,
2013-05-05 21:01:00,65.7,21.0,29.68,North,0,0.0,0.0,18,0.00,,OVC036,0.00,VWS V12.08,2013-05-06 04:01:00,
2013-05-05 21:06:00,65.1,20.6,29.68,North,0,0.0,0.0,18,0.00,,OVC036,0.00,VWS V12.08,2013-05-06 04:06:00,
2013-05-05 21:11:00,64.4,22.5,29.68,North,0,0.0,0.0,20,0.00,,OVC036,0.00,VWS V12.08,2013-05-06 04:11:00,
2013-05-05 21:16:00,64.0,25.5,29.68,North,0,0.0,0.0,23,0.00,,OVC036,0.00,VWS V12.08,2013-05-06 04:16:00,
2013-05-05 21:21:00,63.7,25.2,29.68,North,0,0.0,0.0,23,0.00,,OVC036,0.00,VWS V12.08,2013-05-06 04:21:00,
2013-05-05 21:26:00,63.3,25.9,29.68,North,0,0.0,0.0,24,0.00,,OVC036,0.00,VWS V12.08,2013-05-06 04:26:00,
2013-05-05 21:31:00,63.0,25.6,29.68,North,0,0.0,0.0,24,0.00,,OVC036,0.00,VWS V12.08,2013-05-06 04:31:00,
2013-05-05 21:36:00,62.8,26.5,29.68,North,0,0.0,0.0,25,0.00,,OVC036,0.00,VWS V12.08,2013-05-06 04:36:00,
2013-05-05 21:41:00,62.4,26.2,29.68,North,0,0.0,0.0,25,0.00,,OVC036,0.00,VWS V12.08,2013-05-06 04:41:00,
2013-05-05 21:46:00,62.2,26.0,29.68,North,0,0.0,0.0,25,0.00,,OVC036,0.00,VWS V12.08,2013-05-06 04:46:00,
2013-05-05 21:51:00,61.9,25.7,29.68,North,0,0.0,0.0,25,0.00,,OVC036,0.00,VWS V12.08,2013-05-06 04:51:00,
2013-05-05 21:56:00,61.7,25.5,29.68,North,0,0.0,0.0,25,0.00,,OVC036,0.00,VWS V12.08,2013-05-06 04:56:00,
2013-05-05 22:01:00,61.5,25.4,29.68,North,0,0.0,0.0,25,0.00,,OVC036,0.00,VWS V12.08,2013-05-06 05:01:00,
2013-05-05 22:06:00,61.2,26.0,29.68,North,0,0.0,0.0,26,0.00,,OVC036,0.00,VWS V12.08,2013-05-06 05:06:00,
2013-05-05 22:11:00,60.8,26.6,29.68,North,0,0.0,0.0,27,0.00,,OVC036,0.00,VWS V12.08,2013-05-06 05:11:00,
2013-05-05 22:16:00,60.3,27.0,29.68,North,0,0.0,0.0,28,0.00,,OVC036,0.00,VWS V12.08,2013-05-06 05:16:00,
2013-05-05 22:21:00,60.1,27.7,29.68,North,0,0.0,0.0,29,0.00,,OVC036,0.00,VWS V12.08,2013-05-06 05:21:00,
2013-05-05 22:26:00,59.9,29.2,29.68,North,0,0.0,0.0,31,0.00,,OVC036,0.00,VWS V12.08,2013-05-06 05:26:00,
2013-05-05 22:31:00,59.7,29.1,29.68,North,0,0.0,0.0,31,0.00,,OVC036,0.00,VWS V12.08,2013-05-06 05:31:00,
2013-05-05 22:36:00,59.5,28.1,29.68,North,0,0.0,0.0,30,0.00,,OVC036,0.00,VWS V12.08,2013-05-06 05:36:00,
2013-05-05 22:41:00,59.4,28.7,29.71,North,0,0.0,0.0,31,0.00,,OVC036,0.00,VWS V12.08,2013-05-06 05:41:00,
2013-05-05 22:46:00,59.4,28.7,29.71,North,0,0.0,0.0,31,0.00,,OVC036,0.00,VWS V12.08,2013-05-06 05:46:00,
2013-05-05 22:51:00,59.2,29.4,29.71,North,0,0.0,0.0,32,0.00,,OVC036,0.00,VWS V12.08,2013-05-06 05:51:00,
2013-05-05 22:56:00,59.2,29.4,29.71,North,0,0.0,0.0,32,0.00,,OVC036,0.00,VWS V12.08,2013-05-06 05:56:00,
2013-05-05 23:01:00,58.8,29.8,29.71,North,0,0.0,0.0,33,0.00,,OVC036,0.00,VWS V12.08,2013-05-06 06:01:00,
2013-05-05 23:06:00,58.5,30.2,29.71,North,0,0.0,0.0,34,0.00,,OVC036,0.00,VWS V12.08,2013-05-06 06:06:00,
2013-05-05 23:11:00,58.3,30.8,29.71,North,0,0.0,0.0,35,0.00,,OVC036,0.00,VWS V12.08,2013-05-06 06:11:00,
2013-05-05 23:16:00,58.1,30.6,29.71,North,0,0.0,0.0,35,0.00,,OVC036,0.00,VWS V12.08,2013-05-06 06:16:00,
2013-05-05 23:21:00,57.9,30.5,29.71,North,0,0.0,0.0,35,0.00,,OVC036,0.00,VWS V12.08,2013-05-06 06:21:00,
2013-05-05 23:26:00,57.9,30.5,29.71,North,0,0.0,0.0,35,0.00,,OVC036,0.00,VWS V12.08,2013-05-06 06:26:00,
2013-05-05 23:31:00,57.6,30.1,29.71,North,0,0.0,0.0,35,0.00,,OVC036,0.00,VWS V12.08,2013-05-06 06:31:00,
2013-05-05 23:36:00,57.6,30.1,29.71,North,0,0.0,0.0,35,0.00,,OVC036,0.00,VWS V12.08,2013-05-06 06:36:00,
2013-05-05 23:41:00,57.4,30.0,29.71,North,0,0.0,0.0,35,0.00,,OVC036,0.00,VWS V12.08,2013-05-06 06:41:00,
2013-05-05 23:46:00,57.2,29.8,29.71,North,0,0.0,0.0,35,0.00,,OVC036,0.00,VWS V12.08,2013-05-06 06:46:00,
2013-05-05 23:51:00,56.8,30.2,29.71,North,0,0.0,0.0,36,0.00,,OVC036,0.00,VWS V12.08,2013-05-06 06:51:00,
2013-05-05 23:56:00,56.7,30.0,29.71,North,0,0.0,0.0,36,0.00,,OVC036,0.00,VWS V12.08,2013-05-06 06:56:00,